Location: Bushey
(51.6333°N, 0.3667°W)
Time: 19:03:15
(UTC+00:00)

Resurs 01 Rocket - Pass Details

Date: 03 March 2021
Orbit: 635 x 643 km, 98.0° (Epoch: 17 April)

Event Time Altitude Azimuth Distance (km) Brightness Sun altitude
Exits shadow 20:50:14 51° 303° (WNW) 810 2.4 -28.6°
Drops below altitude 10° 20:53:50 10° 339° (NNW) 2,037 4.8 -29.1°
Sets 20:56:05 0° 344° (NNW) 2,951 5.7 -29.4°
